Погода в Пуэрто-Суаресе

Боливия     18°59′03″S   57°48′05″W
темп.,
°C
ветер,
м/с
пор.,
м/с
влажн.,
%
обл.,
%
осадки,
мм/ч
давл.,
гПа
погр.,
м
25 июля, вс
вс2523:00+22в22460 0.0 101218
02:00+21в11490 0.0 101220
05:00+19в11530 0.0 101216
08:00+24св13400 0.0 1014186
11:00+34с58240 0.0 10132275
14:00+36с46200 0.0 10092845
17:00+34с37230 0.0 1007407
20:00+26св12360 0.0 100911
26 июля, пн
пн2623:00+23всв11410 0.0 101011
02:00+22в11445 0.0 101011
05:00+21в22465 0.0 101022
08:00+26всв12355 0.0 1013162
11:00+36с272148 0.0 10122309
14:00+38ссз57175 0.0 10083474
17:00+35ссз26200 0.0 1006245
20:00+26св11330 0.0 100912
27 июля, вт
вт2723:00+24ссв11380 0.0 101012
02:00+24с113991 0.0 101016
05:00+26юз5104028 0.0 1012835
08:00+22ююз5116693 0.0 1017903
11:00+22ююз6106599 0.0 10181071
14:00+21ююз5965100 0.0 10171256
17:00+17ююз5970100 0.0 1018939
20:00+16ююз497121 0.0 1020838
28 июля, ср
ср2823:00+14ююз4106712 0.0 1021674
02:00+13ююз4125340 0.0 1021743
05:00+15ю4114152 0.0 1021786
08:00+16ю41034100 0.0 1024953
11:00+16ююз4824100 0.0 10261012
14:00+17ююз4719100 0.0 10241023
17:00+17ююз481681 0.0 10241162
20:00+16ююз31017100 0.0 1026965
29 июля, чт
чт2923:00+17ю41017100 0.0 10271173
02:00+16ю41019100 0.0 10271109
05:00+14ю372277 0.0 1026728
08:00+15ю362413 0.0 1028903
11:00+19ю351723 0.0 10271484
14:00+22ю34138 0.0 10231676
17:00+19ю35146 0.0 1022772
20:00+13ю25205 0.0 102395